Location: ?p Dangia
(12.0167°N, 108.4333°E)
Time: 12:27:01
(UTC+00:00)

Cosmos 1190 Rocket - Pass Details

Date: 07 June 2020
Orbit: 756 x 780 km, 74.1° (Epoch: 14 July)

Event Time Altitude Azimuth Distance (km) Brightness Sun altitude
Rises 11:42:17 0° 358° (N) 3,226 7.6 -8.1°
Reaches altitude 10° 11:44:46 10° 5° (N) 2,304 6.8 -8.7°
Maximum altitude 11:49:42 42° 76° (ENE) 1,084 4.5 -9.8°
Drops below altitude 10° 11:54:40 10° 147° (SSE) 2,318 6.0 -10.8°
Enters shadow 11:54:48 - 147° (SSE) 2,362 6.0 -10.9°
